DW2509 East Northport NY US current weather conditions

sailwx.info

Wind from 323

Air temperature 20.6° C
Dewpoint 20.6° C

Last reported at 2019-Sep-16 00:57 UTC.
Time now 2019-Sep-16 02:02 UTC

Location: N 40°52' W 073°19'.
View on Google Maps.

See reports from other nearby stations

  
Tides and Currents Weather Stations Pressure Air Temp Water Temp Dewpoint Dewpoint Depression Visibility Wind Speed Wind Dir Waves Ship Positions
date/time (UTC)wind fromknots sea level pressurealtimeterstation pressurevisibilityair tempwater tempwave heightnotes
2019-Sep-16 00:57 323 20.6
2019-Sep-16 00:27 323 21.1
2019-Sep-15 23:57 323 21.7
2019-Sep-15 22:57 323 23.3
2019-Sep-15 22:27 323 25.0
2019-Sep-15 21:57 323 26.1
2019-Sep-15 21:27 323 2 gusting 5 27.2
2019-Sep-15 20:27 323 28.3
2019-Sep-15 19:57 323 28.9
2019-Sep-15 18:57 334 0 gusting 6 28.3
2019-Sep-15 17:57 007 28.3
2019-Sep-15 13:57 050 22.2
2019-Sep-15 12:58 022 0 gusting 8 21.7
2019-Sep-15 10:27 226 20.6
2019-Sep-15 09:57 226 21.1
2019-Sep-15 08:57 226 21.1
2019-Sep-15 05:57 226 22.2
2019-Sep-15 04:57 226 22.2
2019-Sep-15 04:27 226 22.2
2019-Sep-15 01:27 253 0 gusting 5 22.2
2019-Sep-14 22:57 197 22.2
2019-Sep-14 20:58 190 22.8
2019-Sep-14 19:58 185 22.2
2019-Sep-14 18:57 192 1 gusting 9 23.9
2019-Sep-14 16:57 176 22.8
2019-Sep-14 16:27 170 0 gusting 13 23.3
2019-Sep-14 15:27 193 24.4
2019-Sep-14 14:57 187 1 gusting 6 23.9
2019-Sep-14 14:27 182 6 gusting 10 23.3
2019-Sep-14 12:27 160 17.8
2019-Sep-14 11:27 160 14.4
2019-Sep-14 10:27 160 12.8
2019-Sep-14 08:57 160 12.2
2019-Sep-14 07:57 160 11.7
2019-Sep-14 06:57 160 11.7
2019-Sep-14 05:57 160 11.7
2019-Sep-14 05:27 160 11.7
2019-Sep-14 03:58 160 11.7
2019-Sep-14 02:58 160 12.2